owner,sensor,date,latitude,longitude,vertical_datum,sea_water_practical_salinity,qcFlag 
SCCF RECON,ioos:station:SCCF:11:1,2014-06-01T00:00:00Z,26.4679,-82.0631,1.6,34.54,1111122 
SCCF RECON,ioos:station:SCCF:11:1,2014-06-01T01:00:00Z,26.4679,-82.0631,1.498,34.55,1111122 
SCCF RECON,ioos:station:SCCF:11:1,2014-06-01T02:00:00Z,26.4679,-82.0631,1.4,34.51,1111122 
SCCF RECON,ioos:station:SCCF:11:1,2014-06-01T03:00:00Z,26.4679,-82.0631,1.36,34.52,1111122 
SCCF RECON,ioos:station:SCCF:11:1,2014-06-01T04:00:00Z,26.4679,-82.0631,1.42,34.53,1111122 
SCCF RECON,ioos:station:SCCF:11:1,2014-06-01T05:00:00Z,26.4679,-82.0631,1.56,34.54,1111122 
SCCF RECON,ioos:station:SCCF:11:1,2014-06-01T06:00:00Z,26.4679,-82.0631,1.71,34.5,1111122 
SCCF RECON,ioos:station:SCCF:11:1,2014-06-01T07:00:00Z,26.4679,-82.0631,1.83,34.51,1111122 
SCCF RECON,ioos:station:SCCF:11:1,2014-06-01T08:00:00Z,26.4679,-82.0631,1.9,34.54,1111122 
SCCF RECON,ioos:station:SCCF:11:1,2014-06-01T09:00:00Z,26.4679,-82.0631,1.91,34.53,1111122 
SCCF RECON,ioos:station:SCCF:11:1,2014-06-01T10:00:00Z,26.4679,-82.0631,1.89,34.57,1111122 
SCCF RECON,ioos:station:SCCF:11:1,2014-06-01T11:00:00Z,26.4679,-82.0631,1.86,34.55,1111122 
SCCF RECON,ioos:station:SCCF:11:1,2014-06-01T12:00:00Z,26.4679,-82.0631,1.81,34.51,1111122 
SCCF RECON,ioos:station:SCCF:11:1,2014-06-01T13:00:00Z,26.4679,-82.0631,1.78,34.5,1111122 
SCCF RECON,ioos:station:SCCF:11:1,2014-06-01T14:00:00Z,26.4679,-82.0631,1.77,34.51,1111122 
SCCF RECON,ioos:station:SCCF:11:1,2014-06-01T15:00:00Z,26.4679,-82.0631,1.798,34.58,1111122 
SCCF RECON,ioos:station:SCCF:11:1,2014-06-01T16:00:00Z,26.4679,-82.0631,1.88,34.65,1111122 
SCCF RECON,ioos:station:SCCF:11:1,2014-06-01T17:00:00Z,26.4679,-82.0631,1.96,34.52,1111122 
SCCF RECON,ioos:station:SCCF:11:1,2014-06-01T18:00:00Z,26.4679,-82.0631,2.04,34.69,1111122 
SCCF RECON,ioos:station:SCCF:11:1,2014-06-01T19:00:00Z,26.4679,-82.0631,2.09,34.88,1111122 
SCCF RECON,ioos:station:SCCF:11:1,2014-06-01T20:00:00Z,26.4679,-82.0631,2.11,34.85,1111122 
SCCF RECON,ioos:station:SCCF:11:1,2014-06-01T21:00:00Z,26.4679,-82.0631,2.07,34.85,1111122 
SCCF RECON,ioos:station:SCCF:11:1,2014-06-01T22:00:00Z,26.4679,-82.0631,1.961,34.66,1111122 
SCCF RECON,ioos:station:SCCF:11:1,2014-06-01T23:00:00Z,26.4679,-82.0631,1.867,34.56,1111122 
SCCF RECON,ioos:station:SCCF:11:1,2014-06-02T00:00:00Z,26.4679,-82.0631,1.8,34.54,1111122 
SCCF RECON,ioos:station:SCCF:11:1,2014-06-02T01:00:00Z,26.4679,-82.0631,1.72,34.55,1111122 
SCCF RECON,ioos:station:SCCF:11:1,2014-06-02T02:00:00Z,26.4679,-82.0631,1.62,34.55,1111122 
SCCF RECON,ioos:station:SCCF:11:1,2014-06-02T03:00:00Z,26.4679,-82.0631,1.52,34.54,1111122 
SCCF RECON,ioos:station:SCCF:11:1,2014-06-02T04:00:00Z,26.4679,-82.0631,1.46,34.54,1111122 
SCCF RECON,ioos:station:SCCF:11:1,2014-06-02T05:00:00Z,26.4679,-82.0631,1.49,34.62,1111122 
SCCF RECON,ioos:station:SCCF:11:1,2014-06-02T06:00:00Z,26.4679,-82.0631,1.65,34.6,1111122 
SCCF RECON,ioos:station:SCCF:11:1,2014-06-02T07:00:00Z,26.4679,-82.0631,1.75,34.6,1111122 
SCCF RECON,ioos:station:SCCF:11:1,2014-06-02T08:00:00Z,26.4679,-82.0631,1.82,34.62,1111122 
SCCF RECON,ioos:station:SCCF:11:1,2014-06-02T09:00:00Z,26.4679,-82.0631,1.86,34.67,1111122 
SCCF RECON,ioos:station:SCCF:11:1,2014-06-02T10:00:00Z,26.4679,-82.0631,1.87,34.62,1111122 
SCCF RECON,ioos:station:SCCF:11:1,2014-06-02T11:00:00Z,26.4679,-82.0631,1.85,34.61,1111122 
SCCF RECON,ioos:station:SCCF:11:1,2014-06-02T12:00:00Z,26.4679,-82.0631,1.81,34.6,1111122 
SCCF RECON,ioos:station:SCCF:11:1,2014-06-02T13:00:00Z,26.4679,-82.0631,1.79,34.58,1111122 
SCCF RECON,ioos:station:SCCF:11:1,2014-06-02T14:00:00Z,26.4679,-82.0631,1.76,34.59,1111122 
SCCF RECON,ioos:station:SCCF:11:1,2014-06-02T15:00:00Z,26.4679,-82.0631,1.74,34.59,1111122 
SCCF RECON,ioos:station:SCCF:11:1,2014-06-02T16:00:00Z,26.4679,-82.0631,1.76,34.77,1111122 
SCCF RECON,ioos:station:SCCF:11:1,2014-06-02T17:00:00Z,26.4679,-82.0631,1.82,34.94,1111122 
SCCF RECON,ioos:station:SCCF:11:1,2014-06-02T18:00:00Z,26.4679,-82.0631,1.87,34.77,1111122 
SCCF RECON,ioos:station:SCCF:11:1,2014-06-02T19:00:00Z,26.4679,-82.0631,1.914,34.71,1111122 
SCCF RECON,ioos:station:SCCF:11:1,2014-06-02T20:00:00Z,26.4679,-82.0631,1.98,34.77,1111122 
SCCF RECON,ioos:station:SCCF:11:1,2014-06-02T21:00:00Z,26.4679,-82.0631,2.0,34.79,1111122 
SCCF RECON,ioos:station:SCCF:11:1,2014-06-02T22:00:00Z,26.4679,-82.0631,1.99,34.78,1111122 
SCCF RECON,ioos:station:SCCF:11:1,2014-06-02T23:00:00Z,26.4679,-82.0631,1.88,34.78,1111122 
SCCF RECON,ioos:station:SCCF:11:1,2014-06-03T00:00:00Z,26.4679,-82.0631,1.756,34.66,1111122 
SCCF RECON,ioos:station:SCCF:11:1,2014-06-03T01:00:00Z,26.4679,-82.0631,1.64,34.69,1111122 
SCCF RECON,ioos:station:SCCF:11:1,2014-06-03T02:00:00Z,26.4679,-82.0631,1.53,34.67,1111122 
SCCF RECON,ioos:station:SCCF:11:1,2014-06-03T03:00:00Z,26.4679,-82.0631,1.46,34.67,1111122 
SCCF RECON,ioos:station:SCCF:11:1,2014-06-03T04:00:00Z,26.4679,-82.0631,1.44,34.68,1111122 
SCCF RECON,ioos:station:SCCF:11:1,2014-06-03T05:00:00Z,26.4679,-82.0631,1.5,34.71,1111122 
SCCF RECON,ioos:station:SCCF:11:1,2014-06-03T06:00:00Z,26.4679,-82.0631,1.62,34.49,1111122 
SCCF RECON,ioos:station:SCCF:11:1,2014-06-03T07:00:00Z,26.4679,-82.0631,1.7,34.45,1111122 
SCCF RECON,ioos:station:SCCF:11:1,2014-06-03T08:00:00Z,26.4679,-82.0631,1.78,34.54,1111122 
SCCF RECON,ioos:station:SCCF:11:1,2014-06-03T09:00:00Z,26.4679,-82.0631,1.86,34.41,1111122 
SCCF RECON,ioos:station:SCCF:11:1,2014-06-03T10:00:00Z,26.4679,-82.0631,1.91,34.57,1111122 
SCCF RECON,ioos:station:SCCF:11:1,2014-06-03T11:00:00Z,26.4679,-82.0631,1.93,34.56,1111122 
SCCF RECON,ioos:station:SCCF:11:1,2014-06-03T12:00:00Z,26.4679,-82.0631,1.93,34.57,1111122 
SCCF RECON,ioos:station:SCCF:11:1,2014-06-03T13:00:00Z,26.4679,-82.0631,1.89,34.48,1111122 
SCCF RECON,ioos:station:SCCF:11:1,2014-06-03T14:00:00Z,26.4679,-82.0631,1.85,34.49,1111122 
SCCF RECON,ioos:station:SCCF:11:1,2014-06-03T15:00:00Z,26.4679,-82.0631,1.82,34.49,1111122 
SCCF RECON,ioos:station:SCCF:11:1,2014-06-03T16:00:00Z,26.4679,-82.0631,1.81,34.53,1111122 
SCCF RECON,ioos:station:SCCF:11:1,2014-06-03T17:00:00Z,26.4679,-82.0631,1.83,34.53,1111122 
SCCF RECON,ioos:station:SCCF:11:1,2014-06-03T18:00:00Z,26.4679,-82.0631,1.87,34.63,1111122 
SCCF RECON,ioos:station:SCCF:11:1,2014-06-03T19:00:00Z,26.4679,-82.0631,1.92,34.94,1111122 
SCCF RECON,ioos:station:SCCF:11:1,2014-06-03T20:00:00Z,26.4679,-82.0631,1.99,34.81,1111122 
SCCF RECON,ioos:station:SCCF:11:1,2014-06-03T21:00:00Z,26.4679,-82.0631,2.03,34.88,1111122 
SCCF RECON,ioos:station:SCCF:11:1,2014-06-03T22:00:00Z,26.4679,-82.0631,2.04,34.88,1111122 
SCCF RECON,ioos:station:SCCF:11:1,2014-06-03T23:00:00Z,26.4679,-82.0631,1.98,34.82,1111122 
SCCF RECON,ioos:station:SCCF:11:1,2014-06-04T00:00:00Z,26.4679,-82.0631,1.9,34.73,1111122 
SCCF RECON,ioos:station:SCCF:11:1,2014-06-04T01:00:00Z,26.4679,-82.0631,1.8,34.68,1111122 
SCCF RECON,ioos:station:SCCF:11:1,2014-06-04T02:00:00Z,26.4679,-82.0631,1.7,34.68,1111122 
SCCF RECON,ioos:station:SCCF:11:1,2014-06-04T03:00:00Z,26.4679,-82.0631,1.614,34.69,1111122 
SCCF RECON,ioos:station:SCCF:11:1,2014-06-04T04:00:00Z,26.4679,-82.0631,1.55,34.71,1111122 
SCCF RECON,ioos:station:SCCF:11:1,2014-06-04T05:00:00Z,26.4679,-82.0631,1.53,34.71,1111122 
SCCF RECON,ioos:station:SCCF:11:1,2014-06-04T06:00:00Z,26.4679,-82.0631,1.59,34.81,1111122 
SCCF RECON,ioos:station:SCCF:11:1,2014-06-04T07:00:00Z,26.4679,-82.0631,1.69,34.7,1111122 
SCCF RECON,ioos:station:SCCF:11:1,2014-06-04T08:00:00Z,26.4679,-82.0631,1.785,34.66,1111122 
SCCF RECON,ioos:station:SCCF:11:1,2014-06-04T09:00:00Z,26.4679,-82.0631,1.864,34.73,1111122 
SCCF RECON,ioos:station:SCCF:11:1,2014-06-04T10:00:00Z,26.4679,-82.0631,1.92,34.75,1111122 
SCCF RECON,ioos:station:SCCF:11:1,2014-06-04T11:00:00Z,26.4679,-82.0631,1.969,34.75,1111122 
SCCF RECON,ioos:station:SCCF:11:1,2014-06-04T12:00:00Z,26.4679,-82.0631,1.96,34.72,1111122 
SCCF RECON,ioos:station:SCCF:11:1,2014-06-04T13:00:00Z,26.4679,-82.0631,1.91,34.73,1111122 
SCCF RECON,ioos:station:SCCF:11:1,2014-06-04T14:00:00Z,26.4679,-82.0631,1.86,34.69,1111122 
SCCF RECON,ioos:station:SCCF:11:1,2014-06-04T15:00:00Z,26.4679,-82.0631,1.83,34.68,1111122 
SCCF RECON,ioos:station:SCCF:11:1,2014-06-04T16:00:00Z,26.4679,-82.0631,1.816,34.68,1111122 
SCCF RECON,ioos:station:SCCF:11:1,2014-06-04T17:00:00Z,26.4679,-82.0631,1.8,34.69,1111122 
SCCF RECON,ioos:station:SCCF:11:1,2014-06-04T18:00:00Z,26.4679,-82.0631,1.83,34.7,1111122 
SCCF RECON,ioos:station:SCCF:11:1,2014-06-04T19:00:00Z,26.4679,-82.0631,1.87,34.72,1111122 
SCCF RECON,ioos:station:SCCF:11:1,2014-06-04T20:00:00Z,26.4679,-82.0631,1.91,34.79,1111122 
SCCF RECON,ioos:station:SCCF:11:1,2014-06-04T21:00:00Z,26.4679,-82.0631,1.99,34.77,1111122 
SCCF RECON,ioos:station:SCCF:11:1,2014-06-04T22:00:00Z,26.4679,-82.0631,1.98,34.63,1111122 
SCCF RECON,ioos:station:SCCF:11:1,2014-06-04T23:00:00Z,26.4679,-82.0631,1.95,34.57,1111122 
SCCF RECON,ioos:station:SCCF:11:1,2014-06-05T00:00:00Z,26.4679,-82.0631,1.91,34.64,1111122 
SCCF RECON,ioos:station:SCCF:11:1,2014-06-05T01:00:00Z,26.4679,-82.0631,1.84,34.69,1111122 
SCCF RECON,ioos:station:SCCF:11:1,2014-06-05T02:00:00Z,26.4679,-82.0631,1.757,34.71,1111122 
SCCF RECON,ioos:station:SCCF:11:1,2014-06-05T03:00:00Z,26.4679,-82.0631,1.69,34.75,1111122 
SCCF RECON,ioos:station:SCCF:11:1,2014-06-05T04:00:00Z,26.4679,-82.0631,1.62,34.75,1111122 
SCCF RECON,ioos:station:SCCF:11:1,2014-06-05T05:00:00Z,26.4679,-82.0631,1.57,34.75,1111122 
SCCF RECON,ioos:station:SCCF:11:1,2014-06-05T06:00:00Z,26.4679,-82.0631,1.57,34.65,1111122 
SCCF RECON,ioos:station:SCCF:11:1,2014-06-05T07:00:00Z,26.4679,-82.0631,1.627,34.73,1111122 
SCCF RECON,ioos:station:SCCF:11:1,2014-06-05T08:00:00Z,26.4679,-82.0631,1.72,34.27,1111122 
SCCF RECON,ioos:station:SCCF:11:1,2014-06-05T09:00:00Z,26.4679,-82.0631,1.8,33.75,1111122 
SCCF RECON,ioos:station:SCCF:11:1,2014-06-05T10:00:00Z,26.4679,-82.0631,1.87,33.63,1111122 
SCCF RECON,ioos:station:SCCF:11:1,2014-06-05T11:00:00Z,26.4679,-82.0631,1.93,33.81,1111122 
SCCF RECON,ioos:station:SCCF:11:1,2014-06-05T12:00:00Z,26.4679,-82.0631,1.98,33.88,1111122 
SCCF RECON,ioos:station:SCCF:11:1,2014-06-05T13:00:00Z,26.4679,-82.0631,1.992,33.98,1111122 
SCCF RECON,ioos:station:SCCF:11:1,2014-06-05T14:00:00Z,26.4679,-82.0631,1.963,33.89,1111122 
SCCF RECON,ioos:station:SCCF:11:1,2014-06-05T15:00:00Z,26.4679,-82.0631,1.9,33.92,1111122 
SCCF RECON,ioos:station:SCCF:11:1,2014-06-05T16:00:00Z,26.4679,-82.0631,1.84,34.1,1111122 
SCCF RECON,ioos:station:SCCF:11:1,2014-06-05T17:00:00Z,26.4679,-82.0631,1.78,34.22,1111122 
SCCF RECON,ioos:station:SCCF:11:1,2014-06-05T18:00:00Z,26.4679,-82.0631,1.762,34.23,1111122 
SCCF RECON,ioos:station:SCCF:11:1,2014-06-05T19:00:00Z,26.4679,-82.0631,1.79,34.01,1111122 
SCCF RECON,ioos:station:SCCF:11:1,2014-06-05T20:00:00Z,26.4679,-82.0631,1.838,34.09,1111122 
SCCF RECON,ioos:station:SCCF:11:1,2014-06-05T21:00:00Z,26.4679,-82.0631,1.88,34.12,1111122 
SCCF RECON,ioos:station:SCCF:11:1,2014-06-05T22:00:00Z,26.4679,-82.0631,1.94,34.23,1111122 
SCCF RECON,ioos:station:SCCF:11:1,2014-06-05T23:00:00Z,26.4679,-82.0631,2.0,34.3,1111122 
SCCF RECON,ioos:station:SCCF:11:1,2014-06-06T00:00:00Z,26.4679,-82.0631,2.02,34.29,1111122 
SCCF RECON,ioos:station:SCCF:11:1,2014-06-06T01:00:00Z,26.4679,-82.0631,2.01,34.24,1111122 
SCCF RECON,ioos:station:SCCF:11:1,2014-06-06T02:00:00Z,26.4679,-82.0631,1.96,34.3,1111122 
SCCF RECON,ioos:station:SCCF:11:1,2014-06-06T03:00:00Z,26.4679,-82.0631,1.86,34.28,1111122 
SCCF RECON,ioos:station:SCCF:11:1,2014-06-06T04:00:00Z,26.4679,-82.0631,1.767,34.37,1111122 
SCCF RECON,ioos:station:SCCF:11:1,2014-06-06T05:00:00Z,26.4679,-82.0631,1.704,34.42,1111122 
SCCF RECON,ioos:station:SCCF:11:1,2014-06-06T06:00:00Z,26.4679,-82.0631,1.67,34.36,1111122 
SCCF RECON,ioos:station:SCCF:11:1,2014-06-06T07:00:00Z,26.4679,-82.0631,1.68,34.32,1111122 
SCCF RECON,ioos:station:SCCF:11:1,2014-06-06T08:00:00Z,26.4679,-82.0631,1.73,34.39,1111122 
SCCF RECON,ioos:station:SCCF:11:1,2014-06-06T09:00:00Z,26.4679,-82.0631,1.82,34.34,1111122 
SCCF RECON,ioos:station:SCCF:11:1,2014-06-06T10:00:00Z,26.4679,-82.0631,1.92,34.28,1111122 
SCCF RECON,ioos:station:SCCF:11:1,2014-06-06T11:00:00Z,26.4679,-82.0631,2.01,33.95,1111122 
SCCF RECON,ioos:station:SCCF:11:1,2014-06-06T12:00:00Z,26.4679,-82.0631,2.077,33.87,1111122 
SCCF RECON,ioos:station:SCCF:11:1,2014-06-06T13:00:00Z,26.4679,-82.0631,2.1,33.94,1111122 
SCCF RECON,ioos:station:SCCF:11:1,2014-06-06T14:00:00Z,26.4679,-82.0631,2.05,33.94,1111122 
SCCF RECON,ioos:station:SCCF:11:1,2014-06-06T15:00:00Z,26.4679,-82.0631,1.944,34.15,1111122 
SCCF RECON,ioos:station:SCCF:11:1,2014-06-06T16:00:00Z,26.4679,-82.0631,1.88,34.32,1111122 
SCCF RECON,ioos:station:SCCF:11:1,2014-06-06T17:00:00Z,26.4679,-82.0631,1.8,34.26,1111122 
SCCF RECON,ioos:station:SCCF:11:1,2014-06-06T18:00:00Z,26.4679,-82.0631,1.74,34.33,1111122 
SCCF RECON,ioos:station:SCCF:11:1,2014-06-06T19:00:00Z,26.4679,-82.0631,1.69,34.27,1111122 
SCCF RECON,ioos:station:SCCF:11:1,2014-06-06T20:00:00Z,26.4679,-82.0631,1.67,34.2,1111122 
SCCF RECON,ioos:station:SCCF:11:1,2014-06-06T21:00:00Z,26.4679,-82.0631,1.7,34.12,1111122 
SCCF RECON,ioos:station:SCCF:11:1,2014-06-06T22:00:00Z,26.4679,-82.0631,1.77,34.3,1111122 
SCCF RECON,ioos:station:SCCF:11:1,2014-06-06T23:00:00Z,26.4679,-82.0631,1.842,34.18,1111122 
SCCF RECON,ioos:station:SCCF:11:1,2014-06-07T00:00:00Z,26.4679,-82.0631,1.91,34.2,1111122 
SCCF RECON,ioos:station:SCCF:11:1,2014-06-07T01:00:00Z,26.4679,-82.0631,1.94,34.24,1111122 
SCCF RECON,ioos:station:SCCF:11:1,2014-06-07T02:00:00Z,26.4679,-82.0631,1.91,34.15,1111122 
SCCF RECON,ioos:station:SCCF:11:1,2014-06-07T03:00:00Z,26.4679,-82.0631,1.853,34.21,1111122 
SCCF RECON,ioos:station:SCCF:11:1,2014-06-07T04:00:00Z,26.4679,-82.0631,1.82,34.24,1111122 
SCCF RECON,ioos:station:SCCF:11:1,2014-06-07T05:00:00Z,26.4679,-82.0631,1.76,34.3,1111122 
SCCF RECON,ioos:station:SCCF:11:1,2014-06-07T06:00:00Z,26.4679,-82.0631,1.71,34.36,1111122 
SCCF RECON,ioos:station:SCCF:11:1,2014-06-07T07:00:00Z,26.4679,-82.0631,1.67,34.4,1111122 
SCCF RECON,ioos:station:SCCF:11:1,2014-06-07T08:00:00Z,26.4679,-82.0631,1.67,34.39,1111122 
SCCF RECON,ioos:station:SCCF:11:1,2014-06-07T09:00:00Z,26.4679,-82.0631,1.73,34.36,1111122 
SCCF RECON,ioos:station:SCCF:11:1,2014-06-07T10:00:00Z,26.4679,-82.0631,1.83,34.29,1111122 
SCCF RECON,ioos:station:SCCF:11:1,2014-06-07T11:00:00Z,26.4679,-82.0631,1.92,34.27,1111122 
SCCF RECON,ioos:station:SCCF:11:1,2014-06-07T12:00:00Z,26.4679,-82.0631,1.985,34.01,1111122 
SCCF RECON,ioos:station:SCCF:11:1,2014-06-07T13:00:00Z,26.4679,-82.0631,2.06,34.06,1111122 
SCCF RECON,ioos:station:SCCF:11:1,2014-06-07T14:00:00Z,26.4679,-82.0631,2.1,34.06,1111122 
SCCF RECON,ioos:station:SCCF:11:1,2014-06-07T15:00:00Z,26.4679,-82.0631,2.071,34.0,1111122 
SCCF RECON,ioos:station:SCCF:11:1,2014-06-07T16:00:00Z,26.4679,-82.0631,2.008,34.04,1111122 
SCCF RECON,ioos:station:SCCF:11:1,2014-06-07T17:00:00Z,26.4679,-82.0631,1.91,34.1,1111122 
SCCF RECON,ioos:station:SCCF:11:1,2014-06-07T18:00:00Z,26.4679,-82.0631,1.77,34.43,1111122 
SCCF RECON,ioos:station:SCCF:11:1,2014-06-07T19:00:00Z,26.4679,-82.0631,1.65,34.52,1111122 
SCCF RECON,ioos:station:SCCF:11:1,2014-06-07T20:00:00Z,26.4679,-82.0631,1.59,34.36,1111122 
SCCF RECON,ioos:station:SCCF:11:1,2014-06-07T21:00:00Z,26.4679,-82.0631,1.61,34.3,1111122 
SCCF RECON,ioos:station:SCCF:11:1,2014-06-07T22:00:00Z,26.4679,-82.0631,1.69,34.38,1111122 
SCCF RECON,ioos:station:SCCF:11:1,2014-06-07T23:00:00Z,26.4679,-82.0631,1.776,34.34,1111122 
SCCF RECON,ioos:station:SCCF:11:1,2014-06-08T00:00:00Z,26.4679,-82.0631,1.85,34.4,1111122 
SCCF RECON,ioos:station:SCCF:11:1,2014-06-08T01:00:00Z,26.4679,-82.0631,1.87,34.38,1111122 
SCCF RECON,ioos:station:SCCF:11:1,2014-06-08T02:00:00Z,26.4679,-82.0631,1.906,34.26,1111122 
SCCF RECON,ioos:station:SCCF:11:1,2014-06-08T03:00:00Z,26.4679,-82.0631,1.94,34.37,1111122 
SCCF RECON,ioos:station:SCCF:11:1,2014-06-08T04:00:00Z,26.4679,-82.0631,1.923,34.3,1111122 
SCCF RECON,ioos:station:SCCF:11:1,2014-06-08T05:00:00Z,26.4679,-82.0631,1.86,34.22,1111122 
SCCF RECON,ioos:station:SCCF:11:1,2014-06-08T06:00:00Z,26.4679,-82.0631,1.8,34.29,1111122 
SCCF RECON,ioos:station:SCCF:11:1,2014-06-08T07:00:00Z,26.4679,-82.0631,1.76,34.32,1111122 
SCCF RECON,ioos:station:SCCF:11:1,2014-06-08T08:00:00Z,26.4679,-82.0631,1.72,34.33,1111122 
SCCF RECON,ioos:station:SCCF:11:1,2014-06-08T09:00:00Z,26.4679,-82.0631,1.74,34.34,1111122 
SCCF RECON,ioos:station:SCCF:11:1,2014-06-08T10:00:00Z,26.4679,-82.0631,1.82,34.32,1111122 
SCCF RECON,ioos:station:SCCF:11:1,2014-06-08T11:00:00Z,26.4679,-82.0631,1.93,34.31,1111122 
SCCF RECON,ioos:station:SCCF:11:1,2014-06-08T12:00:00Z,26.4679,-82.0631,2.05,34.25,1111122 
SCCF RECON,ioos:station:SCCF:11:1,2014-06-08T13:00:00Z,26.4679,-82.0631,2.12,34.23,1111122 
SCCF RECON,ioos:station:SCCF:11:1,2014-06-08T14:00:00Z,26.4679,-82.0631,2.16,34.19,1111122 
SCCF RECON,ioos:station:SCCF:11:1,2014-06-08T15:00:00Z,26.4679,-82.0631,2.14,34.05,1111122 
SCCF RECON,ioos:station:SCCF:11:1,2014-06-08T16:00:00Z,26.4679,-82.0631,2.031,34.17,1111122 
SCCF RECON,ioos:station:SCCF:11:1,2014-06-08T17:00:00Z,26.4679,-82.0631,1.91,34.33,1111122 
SCCF RECON,ioos:station:SCCF:11:1,2014-06-08T18:00:00Z,26.4679,-82.0631,1.81,34.42,1111122 
SCCF RECON,ioos:station:SCCF:11:1,2014-06-08T19:00:00Z,26.4679,-82.0631,1.694,34.47,1111122 
SCCF RECON,ioos:station:SCCF:11:1,2014-06-08T20:00:00Z,26.4679,-82.0631,1.59,34.52,1111122 
SCCF RECON,ioos:station:SCCF:11:1,2014-06-08T21:00:00Z,26.4679,-82.0631,1.53,34.48,1111122 
SCCF RECON,ioos:station:SCCF:11:1,2014-06-08T22:00:00Z,26.4679,-82.0631,1.54,34.4,1111122 
SCCF RECON,ioos:station:SCCF:11:1,2014-06-08T23:00:00Z,26.4679,-82.0631,1.615,34.48,1111122 
SCCF RECON,ioos:station:SCCF:11:1,2014-06-09T00:00:00Z,26.4679,-82.0631,1.72,34.45,1111122 
SCCF RECON,ioos:station:SCCF:11:1,2014-06-09T01:00:00Z,26.4679,-82.0631,1.82,34.49,1111122 
SCCF RECON,ioos:station:SCCF:11:1,2014-06-09T02:00:00Z,26.4679,-82.0631,1.919,34.45,1111122 
SCCF RECON,ioos:station:SCCF:11:1,2014-06-09T03:00:00Z,26.4679,-82.0631,1.97,34.31,1111122 
SCCF RECON,ioos:station:SCCF:11:1,2014-06-09T04:00:00Z,26.4679,-82.0631,1.951,34.35,1111122 
SCCF RECON,ioos:station:SCCF:11:1,2014-06-09T05:00:00Z,26.4679,-82.0631,1.87,34.39,1111122 
SCCF RECON,ioos:station:SCCF:11:1,2014-06-09T06:00:00Z,26.4679,-82.0631,1.77,34.44,1111122 
SCCF RECON,ioos:station:SCCF:11:1,2014-06-09T07:00:00Z,26.4679,-82.0631,1.71,34.49,1111122 
SCCF RECON,ioos:station:SCCF:11:1,2014-06-09T08:00:00Z,26.4679,-82.0631,1.7,34.51,1111122 
SCCF RECON,ioos:station:SCCF:11:1,2014-06-09T09:00:00Z,26.4679,-82.0631,1.73,34.46,1111122 
SCCF RECON,ioos:station:SCCF:11:1,2014-06-09T10:00:00Z,26.4679,-82.0631,1.79,34.42,1111122 
SCCF RECON,ioos:station:SCCF:11:1,2014-06-09T11:00:00Z,26.4679,-82.0631,1.897,34.1,1111122 
SCCF RECON,ioos:station:SCCF:11:1,2014-06-09T12:00:00Z,26.4679,-82.0631,2.015,33.95,1111122 
SCCF RECON,ioos:station:SCCF:11:1,2014-06-09T13:00:00Z,26.4679,-82.0631,2.1,33.75,1111122 
SCCF RECON,ioos:station:SCCF:11:1,2014-06-09T14:00:00Z,26.4679,-82.0631,2.154,33.69,1111122 
SCCF RECON,ioos:station:SCCF:11:1,2014-06-09T15:00:00Z,26.4679,-82.0631,2.165,33.73,1111122 
SCCF RECON,ioos:station:SCCF:11:1,2014-06-09T16:00:00Z,26.4679,-82.0631,2.11,33.76,1111122 
SCCF RECON,ioos:station:SCCF:11:1,2014-06-09T17:00:00Z,26.4679,-82.0631,2.0,34.1,1111122 
SCCF RECON,ioos:station:SCCF:11:1,2014-06-09T18:00:00Z,26.4679,-82.0631,1.869,34.36,1111122 
SCCF RECON,ioos:station:SCCF:11:1,2014-06-09T19:00:00Z,26.4679,-82.0631,1.74,34.47,1111122 
SCCF RECON,ioos:station:SCCF:11:1,2014-06-09T20:00:00Z,26.4679,-82.0631,1.62,34.56,1111122 
SCCF RECON,ioos:station:SCCF:11:1,2014-06-09T21:00:00Z,26.4679,-82.0631,1.5,34.65,1111122 
SCCF RECON,ioos:station:SCCF:11:1,2014-06-09T22:00:00Z,26.4679,-82.0631,1.43,34.68,1111122 
SCCF RECON,ioos:station:SCCF:11:1,2014-06-09T23:00:00Z,26.4679,-82.0631,1.46,34.59,1111122 
SCCF RECON,ioos:station:SCCF:11:1,2014-06-10T00:00:00Z,26.4679,-82.0631,1.58,34.58,1111122 
SCCF RECON,ioos:station:SCCF:11:1,2014-06-10T01:00:00Z,26.4679,-82.0631,1.731,34.52,1111122 
SCCF RECON,ioos:station:SCCF:11:1,2014-06-10T02:00:00Z,26.4679,-82.0631,1.85,34.48,1111122 
SCCF RECON,ioos:station:SCCF:11:1,2014-06-10T03:00:00Z,26.4679,-82.0631,1.93,34.4,1111122 
SCCF RECON,ioos:station:SCCF:11:1,2014-06-10T04:00:00Z,26.4679,-82.0631,1.99,34.35,1111122 
SCCF RECON,ioos:station:SCCF:11:1,2014-06-10T05:00:00Z,26.4679,-82.0631,2.0,34.2,1111122 
SCCF RECON,ioos:station:SCCF:11:1,2014-06-10T06:00:00Z,26.4679,-82.0631,1.95,34.26,1111122 
SCCF RECON,ioos:station:SCCF:11:1,2014-06-10T07:00:00Z,26.4679,-82.0631,1.891,34.43,1111122 
SCCF RECON,ioos:station:SCCF:11:1,2014-06-10T08:00:00Z,26.4679,-82.0631,1.83,34.43,1111122 
SCCF RECON,ioos:station:SCCF:11:1,2014-06-10T09:00:00Z,26.4679,-82.0631,1.79,34.5,1111122 
SCCF RECON,ioos:station:SCCF:11:1,2014-06-10T10:00:00Z,26.4679,-82.0631,1.81,34.5,1111122 
SCCF RECON,ioos:station:SCCF:11:1,2014-06-10T11:00:00Z,26.4679,-82.0631,1.877,34.43,1111122 
SCCF RECON,ioos:station:SCCF:11:1,2014-06-10T12:00:00Z,26.4679,-82.0631,1.99,34.36,1111122 
SCCF RECON,ioos:station:SCCF:11:1,2014-06-10T13:00:00Z,26.4679,-82.0631,2.09,33.9,1111122 
SCCF RECON,ioos:station:SCCF:11:1,2014-06-10T14:00:00Z,26.4679,-82.0631,2.15,33.67,1111122 
SCCF RECON,ioos:station:SCCF:11:1,2014-06-10T15:00:00Z,26.4679,-82.0631,2.23,34.34,1111122 
SCCF RECON,ioos:station:SCCF:11:1,2014-06-10T16:00:00Z,26.4679,-82.0631,2.25,34.43,1111122 
SCCF RECON,ioos:station:SCCF:11:1,2014-06-10T17:00:00Z,26.4679,-82.0631,2.18,34.13,1111122 
SCCF RECON,ioos:station:SCCF:11:1,2014-06-10T18:00:00Z,26.4679,-82.0631,2.031,34.24,1111122 
SCCF RECON,ioos:station:SCCF:11:1,2014-06-10T19:00:00Z,26.4679,-82.0631,1.87,34.44,1111122 
SCCF RECON,ioos:station:SCCF:11:1,2014-06-10T20:00:00Z,26.4679,-82.0631,1.724,34.54,1111122 
SCCF RECON,ioos:station:SCCF:11:1,2014-06-10T21:00:00Z,26.4679,-82.0631,1.58,34.62,1111122 
SCCF RECON,ioos:station:SCCF:11:1,2014-06-10T22:00:00Z,26.4679,-82.0631,1.452,34.74,1111122 
SCCF RECON,ioos:station:SCCF:11:1,2014-06-10T23:00:00Z,26.4679,-82.0631,1.42,34.74,1111122 
SCCF RECON,ioos:station:SCCF:11:1,2014-06-11T00:00:00Z,26.4679,-82.0631,1.49,34.53,1111122 
SCCF RECON,ioos:station:SCCF:11:1,2014-06-11T01:00:00Z,26.4679,-82.0631,1.63,34.56,1111122 
SCCF RECON,ioos:station:SCCF:11:1,2014-06-11T02:00:00Z,26.4679,-82.0631,1.749,34.51,1111122 
SCCF RECON,ioos:station:SCCF:11:1,2014-06-11T03:00:00Z,26.4679,-82.0631,1.86,34.56,1111122 
SCCF RECON,ioos:station:SCCF:11:1,2014-06-11T04:00:00Z,26.4679,-82.0631,1.95,34.5,1111122 
SCCF RECON,ioos:station:SCCF:11:1,2014-06-11T05:00:00Z,26.4679,-82.0631,2.011,34.5,1111122 
SCCF RECON,ioos:station:SCCF:11:1,2014-06-11T06:00:00Z,26.4679,-82.0631,2.03,34.6,1111122 
SCCF RECON,ioos:station:SCCF:11:1,2014-06-11T07:00:00Z,26.4679,-82.0631,1.98,34.47,1111122 
SCCF RECON,ioos:station:SCCF:11:1,2014-06-11T08:00:00Z,26.4679,-82.0631,1.91,34.49,1111122 
SCCF RECON,ioos:station:SCCF:11:1,2014-06-11T09:00:00Z,26.4679,-82.0631,1.84,34.51,1111122 
SCCF RECON,ioos:station:SCCF:11:1,2014-06-11T10:00:00Z,26.4679,-82.0631,1.787,34.54,1111122 
SCCF RECON,ioos:station:SCCF:11:1,2014-06-11T11:00:00Z,26.4679,-82.0631,1.837,34.53,1111122 
SCCF RECON,ioos:station:SCCF:11:1,2014-06-11T12:00:00Z,26.4679,-82.0631,1.93,35.04,1111122 
SCCF RECON,ioos:station:SCCF:11:1,2014-06-11T13:00:00Z,26.4679,-82.0631,2.04,34.89,1111122 
SCCF RECON,ioos:station:SCCF:11:1,2014-06-11T14:00:00Z,26.4679,-82.0631,2.14,35.08,1111122 
SCCF RECON,ioos:station:SCCF:11:1,2014-06-11T15:00:00Z,26.4679,-82.0631,2.2,35.13,1111122 
SCCF RECON,ioos:station:SCCF:11:1,2014-06-11T16:00:00Z,26.4679,-82.0631,2.229,35.13,1111122 
SCCF RECON,ioos:station:SCCF:11:1,2014-06-11T17:00:00Z,26.4679,-82.0631,2.23,35.21,1111122 
SCCF RECON,ioos:station:SCCF:11:1,2014-06-11T18:00:00Z,26.4679,-82.0631,2.112,34.78,1111122 